This is the latest recevied weather packets stored in our database for station/object OK2VOP-6. If no packets are shown the sender has not sent any weather packets the latest 10 day(s).
| Time | Temp. | Humidity | Pressure | Rain* | Wind** | Luminosity | Snow |
|---|---|---|---|---|---|---|---|
| 1788116817 | 22.22° C | 38% | - | 0 mm | - | - | - |
| 1788115612 | 22.78° C | 36% | - | 0 mm | - | - | - |
| 1788114407 | 23.33° C | 35% | - | 0 mm | - | - | - |
| 1788113203 | 23.89° C | 32% | - | 0 mm | - | - | - |
| 1788111997 | 25° C | 29% | - | 0 mm | - | - | - |
| 1788110792 | 26.67° C | 23% | - | 0 mm | - | - | - |
| 1788109587 | 27.78° C | 20% | - | 0 mm | - | - | - |
| 1788108383 | 28.89° C | 16% | - | 0 mm | - | - | - |
| 1788107178 | 30° C | 13% | - | 0 mm | - | - | - |
| 1788105973 | 31.11° C | 13% | - | 0 mm | - | - | - |
| 1788104768 | 31.67° C | 12% | - | 0 mm | - | - | - |
| 1788103563 | 31.67° C | 13% | - | 0 mm | - | - | - |
| 1788102356 | 31.67° C | 10% | - | 0 mm | - | - | - |
| 1788101151 | 32.22° C | 10% | - | 0 mm | - | - | - |
| 1788099946 | 32.22° C | 11% | - | 0 mm | - | - | - |
| 1788098741 | 31.67° C | 14% | - | 0 mm | - | - | - |
| 1788097537 | 30° C | 15% | - | 0 mm | - | - | - |
| 1788096331 | 30.56° C | 13% | - | 0 mm | - | - | - |
| 1788095127 | 31.11° C | 12% | - | 0 mm | - | - | - |
| 1788093922 | 30.56° C | 14% | - | 0 mm | - | - | - |
| 1788092717 | 29.44° C | 15% | - | 0 mm | - | - | - |
| 1788091512 | 29.44° C | 15% | - | 0 mm | - | - | - |
| 1788090307 | 29.44° C | 14% | - | 0 mm | - | - | - |
| 1788089103 | 29.44° C | 16% | - | 0 mm | - | - | - |
| 1788087898 | 28.33° C | 18% | - | 0 mm | - | - | - |
* Rain latest hour (hover to see other rain measurements)
** Current wind speed in m/s (hover to see current wind gust speed)